OR Tambo International Airport, South Africa

4:11 PM SAST on April 23, 2017 (GMT +0200)
Benoni Farrarmere | | Change Station

Elev 5486 ft 26.15 °S, 28.30 °E | Updated 4 minutes ago

Clear
Clear
64.4 °F
Feels Like 64.4 °F
N
3.0
Wind Variable Wind from West
Gusts 6.0 mph

Today
High -- | Low -- °F
--% Chance of Precip.
Yesterday
High -- | Low -- °F
Precip. -- in
Pressure 30.21 in
Visibility -9999.0 miles
Clouds
Dew Point 52 °F
Humidity 65%
Rainfall 0.00 in
Snow Depth Not available.
6:26 AM 5:43 PM
Waning Crescent, 12% visible
METAR FAOR 231400Z 29009KT CAVOK 17/11 Q1023 NOSIG
Pressure 30.21 in
Visibility -9999.0 miles
Clouds
Dew Point 52 °F
Humidity 65%
Rainfall 0.00 in
Snow Depth Not available.
6:26 AM 5:43 PM
Waning Crescent, 12% visible
METAR FAOR 231400Z 29009KT CAVOK 17/11 Q1023 NOSIG

Get Severe Weather Alerts

Thanks for signing up!

Be on the lookout for a verification email in your inbox.

You'll start receiving the daily forecast at 8 AM.

×

10-Day Weather Forecast

No radar image for this location.
×

Almanac

Astronomy

Apr. 23, 2017 Rise Set
Actual Time
Civil Twilight
Nautical Twilight
Astronomical Twilight
Moon
Length of Visible Light
Length of Day
Tomorrow will be .
, % of the Moon is Illuminated

Today's Extremes

Country Highs Country Lows

Community

WunderPhotos

WunderBlog® & News

Nearby

Air Quality

  Air Quality AQ Index Pollutant
Not available.

Snow Depth

Station Depth Elevation

Earthquake Activity

City Distance Mag. Time & Date
Minimum magnitude displayed is 2.5.

Coastal Water Temperatures

Place Temperature

Stations

Nearby Weather Stations

Station Location Temp. Windchill Dew Point Humidity Wind Precip. Elev Updated Type